This demonstration page uses our WeatherBlox Daily Observations layout. Learn more.

Left ArrowRight Arrow

40.92945, -100.16068

Hourly Observations for November 30, 2018

Temp ( °F °C ) Dew Point ( °F °C ) Humidity (%) Winds ( mph kmh ) Pressure ( in mb ) Visibility ( mi km ) Precip ( " mm )
12:15 am 00:15 Cloudy with Freezing Fog 30 -1.2 28 -2 94 94 Calm 29.94 1014 0.25 0.402335 0 0
12:35 am 00:35 Cloudy with Freezing Fog 30 -1 29 -1.5 96 96 Calm 29.91 1013 5 8.0467 0 0
12:55 am 00:55 Cloudy with Freezing Fog 31 -0.7 30 -1.3 96 96 Calm 29.91 1013 0.25 0.402335 0 0
1:15 am 01:15 Cloudy with Freezing Fog 31 -0.5 30 -1 96 96 Calm 29.91 1013 5 8.0467 0 0
1:35 am 01:35 Cloudy with Freezing Fog 31 -0.4 30 -1 96 96 Calm 29.91 1013 0.25 0.402335 0 0
1:55 am 01:55 Cloudy with Fog 32 0.1 32 -0.1 99 99 SE 3 6 29.91 1013 0.5 0.80467 0 0
2:15 am 02:15 Cloudy with Fog 33 0.7 32 0.1 96 96 ENE 3 6 29.91 1013 0.5 0.80467 0 0
2:35 am 02:35 Cloudy with Fog 33 0.5 32 0 96 96 E 5 7 29.91 1013 0.5 0.80467 0 0
2:55 am 02:55 Cloudy with Fog 33 0.5 32 0 96 96 E 5 7 29.91 1013 0.5 0.80467 0 0
3:15 am 03:15 Cloudy with Fog 33 0.7 32 0.1 96 96 ESE 5 7 29.88 1012 0.25 0.402335 0 0
3:35 am 03:35 Cloudy with Fog 34 1 33 0.5 97 97 SSE 3 6 29.91 1013 0.25 0.402335 0 0
3:55 am 03:55 Cloudy with Fog 34 1 33 0.5 97 97 SSE 5 7 29.91 1013 0.25 0.402335 0 0
4:15 am 04:15 Cloudy with Fog 34 1.1 33 0.5 96 96 SE 5 7 29.88 1012 0.25 0.402335 0 0
4:35 am 04:35 Cloudy with Fog 35 1.4 33 0.7 95 95 Calm 29.88 1012 0.5 0.80467 0 0
4:55 am 04:55 Cloudy with Fog 35 1.5 34 1 97 97 SE 5 7 29.91 1013 0.25 0.402335 0 0
5:15 am 05:15 Cloudy with Fog 35 1.5 34 1 97 97 ESE 3 6 29.91 1013 0.25 0.402335 0 0
5:35 am 05:35 Cloudy with Fog 34 1.2 33 0.6 96 96 E 3 6 29.88 1012 0.25 0.402335 0 0
5:55 am 05:55 Cloudy with Fog 34 1 33 0.5 97 97 E 5 7 29.88 1012 0.25 0.402335 0 0
6:15 am 06:15 Cloudy with Fog 34 1 33 0.5 97 97 ESE 3 6 29.88 1012 0.25 0.402335 0 0
6:35 am 06:35 Cloudy with Fog 34 1.1 33 0.5 96 96 ESE 5 7 29.88 1012 0.25 0.402335 0 0
6:55 am 06:55 Cloudy with Fog 34 1.1 33 0.5 96 96 ESE 7 11 29.88 1012 0.25 0.402335 0 0
7:15 am 07:15 Cloudy with Fog 34 1.1 33 0.6 97 97 ESE 8 13 29.88 1012 0.25 0.402335 0 0
7:35 am 07:35 Cloudy with Fog 34 1.1 33 0.6 97 97 SE 8 13 29.88 1012 0.5 0.80467 0 0
7:55 am 07:55 Cloudy with Fog 34 1 33 0.5 97 97 ESE 9 15 29.88 1012 0.25 0.402335 0 0
8:15 am 08:15 Cloudy with Fog 34 1 33 0.5 97 97 SE 6 9 29.91 1013 0.25 0.402335 0 0
8:35 am 08:35 Cloudy with Fog 34 1.1 33 0.6 97 97 ESE 8 13 29.88 1012 0.25 0.402335 0 0
8:55 am 08:55 Cloudy with Fog 34 1 33 0.5 97 97 ESE 9 15 29.88 1012 5 8.0467 0 0
9:15 am 09:15 Cloudy with Fog 34 1.1 33 0.6 97 97 ESE 9 15 29.88 1012 5 8.0467 0 0
9:35 am 09:35 Cloudy with Fog 34 1.1 33 0.6 97 97 SE 10 17 29.88 1012 5 8.0467 0 0
9:55 am 09:55 Cloudy with Fog 34 1.2 33 0.7 97 97 ESE 9 15 29.88 1012 0.5 0.80467 0 0
10:15 am 10:15 Cloudy with Fog 35 1.5 34 1 97 97 ESE 8 13 29.88 1012 0.5 0.80467 0 0
10:35 am 10:35 Cloudy with Mist and Fog 35 1.7 34 1.1 96 96 ESE 8 13 29.85 1011 0.75 1.207005 0 0
10:55 am 10:55 Cloudy with Mist and Fog 36 2.2 35 1.6 96 96 ESE 9 15 29.85 1011 2.5 4.02335 0 0
11:15 am 11:15 Cloudy with Mist and Fog 37 2.7 36 2.1 96 96 ESE 10 17 29.83 1010 3 4.82802 0 0
11:35 am 11:35 Cloudy with Mist and Fog 37 2.8 36 2.2 96 96 SE 12 19 29.83 1010 4 6.43736 0 0
11:55 am 11:55 Cloudy with Mist and Fog 37 3 37 2.5 97 97 SE 9 15 29.83 1010 5 8.0467 0 0
12:15 pm 12:15 Cloudy with Mist and Fog 38 3.5 37 2.8 95 95 ESE 12 19 29.8 1009 5 8.0467 0 0
12:35 pm 12:35 Mostly Cloudy 40 4.4 38 3.5 94 94 ESE 12 19 29.77 1008 7 11.26538 0 0
12:55 pm 12:55 Cloudy 41 4.9 37 2.6 85 85 ESE 13 20 29.77 1008 10 16.0934 0 0
1:15 pm 13:15 Cloudy 41 5.2 37 2.5 83 83 ESE 14 22 29.74 1007 10 16.0934 0 0
1:35 pm 13:35 Cloudy 41 5 36 2.1 82 82 ESE 15 24 29.74 1007 10 16.0934 0 0
1:55 pm 13:55 Cloudy 40 4.6 35 1.9 83 83 ESE 13 20 29.74 1007 7 11.26538 0 0
2:15 pm 14:15 Cloudy 40 4.5 35 1.7 82 82 ESE 13 20 29.74 1007 7 11.26538 0 0
2:35 pm 14:35 Cloudy 40 4.6 35 1.8 82 82 E 15 24 29.71 1006 7 11.26538 0 0
2:55 pm 14:55 Cloudy 40 4.7 35 1.8 82 82 E 16 26 29.71 1006 10 16.0934 0 0
3:15 pm 15:15 Cloudy with Drizzle 40 4.5 35 1.9 83 83 ESE 13 20 29.71 1006 7 11.26538 0 0
3:35 pm 15:35 Cloudy 40 4.7 36 2 83 83 E 15 24 29.71 1006 10 16.0934 0 0
3:55 pm 15:55 Cloudy 40 4.5 35 1.9 83 83 E 16 26 29.68 1005 7 11.26538 0 0
4:15 pm 16:15 Cloudy 40 4.5 36 2.1 85 85 E 16 26 29.68 1005 7 11.26538 0 0
4:35 pm 16:35 Cloudy with Drizzle 39 4.1 37 2.5 89 89 E 15 24 29.71 1006 3 4.82802 0 0
4:55 pm 16:55 Cloudy with Mist and Fog 39 4 37 2.5 90 90 E 9 15 29.71 1006 4 6.43736 0 0
5:15 pm 17:15 Cloudy with Light Rain 39 3.9 37 2.5 91 91 E 13 20 29.71 1006 3 4.82802 0 0
5:35 pm 17:35 Cloudy with Light Rain 39 3.8 37 2.7 93 93 E 13 20 29.68 1005 3 4.82802 0.01 0.254
6:15 pm 18:15 Cloudy with Mist and Fog 39 3.8 37 2.8 93 93 E 13 20 29.68 1005 4 6.43736 0 0
6:35 pm 18:35 Cloudy with Mist and Fog 38 3.6 37 2.5 93 93 E 12 19 29.68 1005 4 6.43736 0 0
6:55 pm 18:55 Cloudy with Light Rain 38 3.5 36 2.4 93 93 E 17 28 29.68 1005 4 6.43736 0 0
7:15 pm 19:15 Cloudy with Light Rain 38 3.3 36 2.2 93 93 E 12 19 29.68 1005 4 6.43736 0.01 0.254
7:35 pm 19:35 Cloudy with Light Rain 38 3.2 36 2.2 93 93 E 15 24 29.65 1004 3 4.82802 0.02 0.508
7:55 pm 19:55 Cloudy with Light Rain 38 3.2 36 2.2 93 93 E 10 17 29.71 1006 3 4.82802 0.02 0.508
8:15 pm 20:15 Cloudy with Light Rain 38 3.1 36 2.2 94 94 E 17 28 29.65 1004 3 4.82802 0.01 0.254
8:35 pm 20:35 Cloudy with Rain 37 3 36 2.1 94 94 SE 5 7 29.68 1005 2.5 4.02335 0.05 1.27
8:55 pm 20:55 Cloudy with Light Rain 38 3.1 36 2.2 94 94 E 9 15 29.65 1004 5 8.0467 0.06 1.524
9:15 pm 21:15 Cloudy with Rain 38 3.1 36 2.2 94 94 E 8 13 29.65 1004 4 6.43736 0.03 0.762
9:35 pm 21:35 Cloudy with Light Rain 38 3.1 36 2.2 94 94 ESE 6 9 29.65 1004 2 3.21868 0.09 2.286
9:55 pm 21:55 Cloudy with Rain 37 3 36 2 93 93 ENE 5 7 29.68 1005 2.5 4.02335 0.15 3.81
10:15 pm 22:15 Cloudy with Light Rain 37 3 36 2.1 94 94 NNE 3 6 29.62 1003 3 4.82802 0.01 0.254
10:35 pm 22:35 Cloudy with Drizzle 37 3 36 2.1 94 94 N 6 9 29.62 1003 3 4.82802 0.02 0.508
10:55 pm 22:55 Cloudy with Rain 37 2.8 36 2 95 95 N 8 13 29.59 1002 3 4.82802 0.02 0.508
11:15 pm 23:15 Cloudy with Mist and Fog 37 2.8 36 2.1 95 95 N 10 17 29.59 1002 5 8.0467 0.01 0.254
11:35 pm 23:35 Cloudy 37 2.9 36 2.1 95 95 NNE 10 17 29.59 1002 7 11.26538 0.01 0.254
11:55 pm 23:55 Cloudy with Light Rain 37 3 36 2.1 94 94 NNE 9 15 29.59 1002 7 11.26538 0.01 0.254

Powered by AerisWeather